Flag for U.S.A. Weather past 2 weeks in Compton, California, U.S.A.

Now
69 °F

Overcast.


Feels Like: 69 °F
Forecast: 69 / 83 °F
Wind: No wind

Location: Hawthorne Municipal Airport

Current Time: Aug 1, 2015 at 7:10:43 AM

Latest Report: Aug 1, 2015 at 5:53 AM


Visibility: 10 mi

Pressure: 29.96 "Hg

Humidity: 81%

Dew point: 63 °F

Location of ComptonLocation

Historic Weather in Compton — Graph

°F

Compton temperature yesterday

Maximum temperature yesterday: 79 °F (at 12:53 PM)
Minimum temperature yesterday: 69 °F (at 10:53 PM)
Average temperature yesterday: 74 °F

Past Weeks' High & Low Weather Summary

 TemperatureHumidityPressure
High90 °F (Jul 19, 11:53 AM)93% (Jul 20, 9:53 PM)30.08 "Hg (Jul 20, 9:53 PM)
Low66 °F (Jul 17, 5:53 AM)34% (Jul 18, 1:53 PM)29.80 "Hg (Jul 17, 4:53 PM)
Average74 °F73%29.94 "Hg
* Reported Jul 17 5:53 AM — Aug 1 5:53 AM, Compton, Weather by CustomWeather, © 2015

Note: Actual official high and low records may vary slightly from our data, if they occured in-between our weather recording intervals... More about our weather records

Advertising

Compton weather history for previous 24 hours

 ConditionsComfort  
Time TempWeatherWind HumidityBarometerVisibility
5:53 AM
Sat, Aug 1
69 °FOvercast.No wind81%29.96 "Hg10 mi
4:53 AM69 °FOvercast.No wind84%29.96 "Hg9 mi
3:53 AM69 °FLow clouds.3 mph84%29.96 "Hg9 mi
2:53 AM69 °FLow clouds.3 mph87%29.96 "Hg8 mi
2:04 AM68 °FLow clouds.5 mph90%29.97 "Hg8 mi
1:53 AM68 °FLow clouds.No wind90%29.96 "Hg7 mi
12:53 AM69 °FLow clouds.5 mph87%29.97 "Hg8 mi
11:53 PM
Fri, Jul 31
69 °FLow clouds.6 mph87%29.96 "Hg10 mi
10:53 PM69 °FLow clouds.6 mph84%29.96 "Hg10 mi
9:53 PM70 °FOvercast.7 mph84%29.97 "Hg10 mi
8:53 PM72 °FLow clouds.7 mph81%29.96 "Hg10 mi
7:53 PM73 °FScattered clouds.9 mph79%29.94 "Hg10 mi
6:53 PM75 °FSunny.8 mph74%29.93 "Hg10 mi
5:53 PM76 °FSunny.10 mph69%29.94 "Hg10 mi
4:53 PM78 °FSunny.10 mph64%29.95 "Hg10 mi
3:53 PM79 °FSunny.10 mph62%29.96 "Hg10 mi
2:53 PM79 °FSunny.10 mph62%29.98 "Hg10 mi
1:53 PM78 °FSunny.9 mph64%29.99 "Hg10 mi
12:53 PM79 °FSunny.10 mph62%30.01 "Hg9 mi
12:03 PM78 °FSunny.7 mph66%30.02 "Hg8 mi
11:53 AM78 °FOvercast.No wind66%30.02 "Hg7 mi
10:53 AM75 °FOvercast.No wind74%30.03 "Hg7 mi
9:53 AM73 °FOvercast.No wind76%30.04 "Hg7 mi
8:53 AM72 °FOvercast.No wind78%30.04 "Hg7 mi
7:53 AM71 °FOvercast.3 mph81%30.04 "Hg7 mi
Weather by CustomWeather, © 2015

See weather overviewHow to use our weather pages